This is the latest recevied weather packets stored in our database for station/object HS3PIK-2. If no packets are shown the sender has not sent any weather packets the latest 10 day(s).
| Time | Temp. | Humidity | Pressure | Rain* | Wind** | Luminosity | Snow |
|---|---|---|---|---|---|---|---|
| 1777703267 | 34.44° C | 64% | - | - | - | 0 W/m² | - |
| 1777702936 | 34.44° C | 62% | - | - | - | 0 W/m² | - |
| 1777702609 | 35° C | 64% | - | - | - | 0 W/m² | - |
| 1777702282 | 35° C | 64% | - | - | - | 0 W/m² | - |
| 1777701954 | 35° C | 61% | - | - | - | 0 W/m² | - |
| 1777701625 | 34.44° C | 61% | - | - | - | 0 W/m² | - |
| 1777701292 | 33.89° C | 63% | - | - | - | 0 W/m² | - |
| 1777700964 | 34.44° C | 64% | - | - | - | 0 W/m² | - |
| 1777700639 | 35° C | 65% | - | - | - | 0 W/m² | - |
| 1777700309 | 34.44° C | 65% | - | - | - | 0 W/m² | - |
| 1777699983 | 34.44° C | 64% | - | - | - | 0 W/m² | - |
| 1777699656 | 34.44° C | 64% | - | - | - | 0 W/m² | - |
| 1777699328 | 34.44° C | 64% | - | - | - | 0 W/m² | - |
| 1777698996 | 34.44° C | 63% | - | - | - | 0 W/m² | - |
| 1777698666 | 35.56° C | 60% | - | - | - | 0 W/m² | - |
| 1777698338 | 35° C | 65% | - | - | - | 0 W/m² | - |
| 1777698014 | 34.44° C | 65% | - | - | - | 0 W/m² | - |
| 1777697683 | 33.89° C | 65% | - | - | - | 0 W/m² | - |
| 1777697354 | 33.89° C | 65% | - | - | - | 0 W/m² | - |
| 1777697026 | 33.89° C | 65% | - | - | - | 0 W/m² | - |
| 1777696699 | 34.44° C | 65% | - | - | - | 0 W/m² | - |
| 1777696369 | 34.44° C | 65% | - | - | - | 0 W/m² | - |
| 1777696039 | 34.44° C | 65% | - | - | - | 0 W/m² | - |
| 1777695711 | 34.44° C | 63% | - | - | - | 0 W/m² | - |
| 1777695386 | 34.44° C | 64% | - | - | - | 0 W/m² | - |
* Rain since midnight (hover to see other rain measurements)
** Current wind speed in m/s (hover to see current wind gust speed)